Location: *
(50.8472°S, 178.2163°W)
Time: 16:06:08
(UTC+00:00)

Daily predictions for brighter satellites

Satellite Brightness Start Highest point End
(mag) Time Altitude Azimuth Time Altitude Azimuth Time Altitude Azimuth
Cosmos 2322 Rocket 4.5 14:50:54 20° ESE 14:50:54 20° ESE 14:53:11 10° SE
Cosmos 2360 Rocket 3.9 15:14:05 29° ESE 15:14:05 29° ESE 15:17:39 10° SE
Cosmos 2333 Rocket 3.5 15:28:47 37° ESE 15:28:47 37° ESE 15:32:31 10° SE
Cosmos 1943 Rocket 4.3 15:31:23 17° S 15:33:07 20° SE 15:37:13 10° E
CZ-4C R/B 3.6 15:39:22 40° S 15:39:22 40° S 15:43:58 10° SE
Cosmos 1464 Rocket 4.5 15:40:12 58° ESE 15:40:12 58° ESE 15:45:45 10° SSE
ATLAS 5 CENTAUR R/B 3.9 15:45:00 27° S 15:45:00 27° S 15:49:44 10° SE
SL-16 R/B 3.2 15:53:15 10° SSE 15:59:27 54° ENE 16:04:52 13° N
ATLAS 2AS CENTAUR R/B 3.0 16:01:00 61° N 16:01:00 61° N 16:07:18 10° NNE
ACS3 Solar Sail 2.8 15:56:35 10° NE 16:02:31 46° ESE 16:08:34 10° S
SL-4 R/B 4.5 16:09:12 17° NE 16:09:12 17° NE 16:10:12 10° NE
Cosmos 2219 Rocket 2.8 16:09:57 41° NNE 16:11:29 53° ENE 16:16:58 10° SE
Cosmos 304 Rocket 4.3 16:15:01 56° E 16:15:01 56° E 16:19:12 10° NE
Cosmos 1850 Rocket 4.2 16:15:23 72° ENE 16:15:23 72° ENE 16:20:24 10° NNE
Cosmos 1980 Rocket 4.1 16:19:03 18° S 16:19:03 18° S 16:21:19 10° SSE
SL-16 R/B 3.0 16:20:37 39° S 16:20:37 39° S 16:24:35 10° SSE
Cosmos 2278 Rocket 3.6 16:17:34 20° S 16:20:52 36° SE 16:26:05 10° ENE
Cosmos 1092 Rocket 4.2 16:15:10 10° S 16:21:30 71° ESE 16:27:42 10° NNE
IRAS Rocket 4.1 16:24:14 10° NNE 16:29:48 89° ESE 16:32:00 39° SSW
Cosmos 2322 Rocket 2.3 16:32:43 59° SSW 16:32:43 59° SSW 16:37:49 10° SSE
Cosmos 1428 Rocket 4.4 16:25:53 10° SSW 16:32:13 70° W 16:38:31 10° N
Cosmos 1452 Rocket 4.0 16:34:29 17° N 16:38:33 61° ENE 16:43:50 10° SSE
ARIANE 5 R/B 2.5 16:37:08 10° NNE 16:42:10 77° ESE 16:46:39 13° SSW
Cosmos 1110 Rocket 4.0 16:40:01 33° NNW 16:42:23 77° ENE 16:47:38 10° SSE
BREEZE-M DEB (TANK) 4.1 16:37:32 34° WNW 16:43:36 78° N 16:47:52 10° E
Cosmos 1025 Rocket 3.8 16:47:17 42° N 16:47:17 42° N 16:50:13 10° N
CZ-2D R/B 4.3 16:42:42 10° NNE 16:44:46 34° NE 16:44:46 34° NE
DMSP B5D2-2 4.2 16:43:40 10° S 16:48:23 54° SW 16:48:23 54° SW
Cosmos 1741 Rocket 3.9 16:48:48 64° W 16:49:01 65° WNW 16:54:11 10° N
Cosmos 2360 Rocket 2.3 16:55:52 49° WSW 16:56:22 51° SW 17:01:58 10° SSE
SJ-12 3.8 16:52:30 10° NNE 16:56:27 83° ESE 16:57:22 52° S
Gbstr 26 Del rocket 3.4 16:55:37 56° WNW 16:56:41 83° NNE 17:02:35 10° ESE
BREEZE-M DEB (TANK) 4.2 16:58:40 19° NE 16:58:40 19° NE 16:59:56 10° ENE
Cosmos 2056 Rocket 4.4 17:00:01 31° SSW 17:00:01 31° SSW 17:03:40 10° SSE
GEOS 3 Rocket 3.6 16:55:26 10° SE 17:00:37 60° SW 17:01:50 48° W
IGS 5A 3.8 16:58:15 10° NNE 17:02:16 62° ESE 17:06:20 10° S
Timation 2 Rocket 4.1 16:58:19 24° SW 17:02:45 72° WNW 17:09:28 10° NNE
STPSAT 2 (USA 217) 4.5 17:02:58 48° SW 17:04:13 78° WNW 17:08:49 10° NNE
Cosmos 2034 Rocket 4.1 17:03:37 14° NW 17:08:54 50° WSW 17:15:08 10° S
CZ-2D R/B 3.9 17:05:39 10° NNE 17:09:29 56° ESE 17:13:28 10° S
SJ-6F 4.4 17:05:26 10° NNE 17:09:30 79° ESE 17:13:03 13° SSW
Lacrosse 5 rocket 1.3 17:10:04 47° NNW 17:10:52 62° NE 17:14:35 10° ESE
Cosmos 2333 Rocket 2.7 17:10:49 37° WSW 17:11:29 38° SW 17:16:49 10° SSE
Orbus 7S? 3.7 17:10:38 34° WSW 17:13:08 83° SSE 17:16:33 10° ENE
UNK 3.7 17:11:58 10° S 17:16:36 59° WSW 17:21:10 10° NNW
Cosmos 1943 Rocket 2.5 17:12:54 14° SSW 17:17:57 69° ESE 17:23:36 10° NE
Cosmos 1302 Rocket 4.4 17:13:11 10° N 17:18:27 67° ENE 17:23:47 10° SSE
Cosmos 1331 Rocket 3.9 17:16:35 21° NW 17:20:01 61° WSW 17:25:14 10° SSE
Cosmos 371 Rocket 3.7 17:21:04 37° W 17:21:21 37° WNW 17:25:46 10° N
Cosmos 2237 Rocket 4.0 17:17:08 10° N 17:22:13 34° ENE 17:27:20 10° SE
Cosmos 968 Rocket 4.1 17:23:58 32° WNW 17:23:58 32° WNW 17:28:24 10° NNW
Cosmos 2369 Rocket 4.2 17:19:48 10° SSW 17:24:03 21° SE 17:28:18 10° E
Genesis I 2.5 17:25:46 57° N 17:26:06 65° NE 17:28:45 10° SE
USA 307 2.2 17:26:28 52° S 17:26:41 54° SSE 17:30:02 10° E
Cosmos 2322 3.7 17:20:58 10° NNW 17:26:44 88° ENE 17:32:34 10° SSE
CZ-4C R/B 3.8 17:24:21 20° SW 17:27:31 27° S 17:32:34 10° SE
Cosmos 1300 Rocket 3.5 17:23:20 10° NNW 17:27:48 78° W 17:32:20 10° S
USA 305 3.5 17:28:37 31° NW 17:29:03 32° NW 17:32:32 10° NNE
ATLAS 5 CENTAUR R/B 3.4 17:24:57 16° SW 17:29:30 36° SSE 17:34:28 10° E
Cosmos 2026 Rocket 4.4 17:27:23 10° SSW 17:32:57 36° W 17:38:32 10° NNW
Cosmos 1500 4.1 17:30:56 10° S 17:33:18 31° ESE 17:35:38 10° NE
IRS-P3 4.2 17:29:41 10° N 17:34:57 55° W 17:40:18 10° SSW
Cosmos 1908 Rocket 4.1 17:34:06 21° NW 17:36:29 36° WSW 17:40:38 10° S
COSMO-SKYMED 1 4.0 17:36:41 10° SSE 17:40:48 40° E 17:44:51 10° NNE
SL-16 R/B 3.1 17:37:10 10° S 17:42:48 36° WSW 17:48:23 10° WNW
SL-4 R/B 4.0 17:43:17 14° NW 17:43:29 14° NW 17:45:36 10° NNW
SMAP 3.3 17:39:01 10° N 17:43:34 48° W 17:48:11 10° SSW
AQUARIUS 4.1 17:39:29 10° N 17:43:56 69° WNW 17:48:26 10° SSW
ACS3 Solar Sail 2.3 17:40:07 10° NNW 17:45:59 40° W 17:51:57 10° SSW
Cosmos 292 Rocket 4.2 17:43:01 10° SSW 17:47:46 62° ESE 17:52:29 10° NE
ATLAS 2AS CENTAUR R/B 4.1 17:48:29 18° W 17:49:40 18° WNW 17:54:24 10° NNW
PSLV R/B 3.4 17:45:33 10° NNE 17:49:46 82° WNW 17:54:02 10° SSW
SL-19 R/B 4.1 17:49:12 10° N 17:54:25 65° WNW 17:59:54 10° SSW
Cosmos 2219 Rocket 2.8 17:51:43 16° WNW 17:55:39 35° SW 18:00:52 10° SSE
SL-24 R/B 4.2 17:53:47 10° N 17:57:58 60° W 18:02:50 10° SSW
Resurs 01 Rocket 4.0 17:56:00 10° ENE 17:59:25 22° ESE 18:02:51 10° S
Cosmos 1975 Rocket 3.5 17:58:02 10° SSW 18:02:06 38° W 18:06:06 10° NNW
Cosmos 2058 4.2 17:58:32 10° S 18:02:21 39° ESE 18:06:07 10° NE
Cosmos 1980 Rocket 4.4 18:02:57 10° SSW 18:03:28 10° S 18:03:59 10° S
SL-16 R/B 3.8 18:02:29 14° SW 18:04:28 16° SSW 18:08:02 10° S
Cosmos 2278 Rocket 2.4 17:59:37 10° SW 18:05:11 53° WNW 18:10:41 10° N
COSMOS 2428 2.7 17:59:31 10° NW 18:05:12 62° SW 18:10:56 10° SSE
Cosmos 1992 Rocket 4.0 18:02:26 10° NNW 18:07:40 90° E 18:12:58 10° SSE
CENTAUR R/B 3.0 18:00:02 10° NW 18:08:20 86° NE 18:14:59 10° SE
NOSS 3-3 (A) 4.2 18:01:55 10° SW 18:08:48 68° SE 18:14:27 10° NE
Okean 2 Rocket 4.0 18:08:23 10° N 18:12:49 55° E 18:17:16 10° SSE
SKYMED 2 3.7 18:08:49 10° SSE 18:13:17 83° ENE 18:17:41 10° NNW
Cosmos 1486 Rocket 4.1 18:11:19 10° SSW 18:16:44 88° ESE 18:22:02 10° NNE
SL-23 DEB 4.3 18:10:44 10° WNW 18:17:10 87° NNE 18:21:02 10° E
Okean 1 Rocket 4.4 18:13:01 10° NNE 18:17:19 46° E 18:21:41 10° SSE
Cosmos 2322 Rocket 3.7 18:14:33 13° WSW 18:17:23 18° SSW 18:21:18 10° S
NOAA 6 4.2 18:13:53 10° NNE 18:19:05 83° ESE 18:24:22 10° SSW
Landsat 7 4.0 18:14:34 10° N 18:19:09 51° W 18:23:48 10° SSW
Cosmos 2279 Rocket 4.4 18:13:21 10° NW 18:19:11 41° WSW 18:25:07 10° S
Radarsat Rocket 4.2 18:12:29 10° NNE 18:19:12 89° WNW 18:25:20 10° SSW
Cosmos 1452 Rocket 4.5 18:16:31 10° WNW 18:21:01 27° SW 18:25:34 10° S
ARIANE 5 R/B 3.9 18:18:29 10° NW 18:21:48 17° W 18:25:09 10° SW
Cosmos 1666 1.9 18:19:24 10° SSW 18:21:56 45° W 18:24:25 10° N
CZ-4B R/B 4.4 18:19:13 10° NNE 18:23:22 68° ESE 18:27:34 10° S
Sich 1 Rocket 4.1 18:23:20 10° N 18:27:47 68° E 18:32:21 10° SSE
Cosmos 1980 3.7 18:22:23 10° NNW 18:28:04 83° WSW 18:33:49 10° SSE
Cosmos 1606 2.8 18:28:12 10° NW 18:31:08 34° WSW 18:34:07 10° S
NOSS 3-3 (C) 4.0 18:24:24 10° SW 18:31:14 80° SE 18:36:50 10° NE
BREEZE-M DEB (TANK) 4.1 18:23:16 10° WSW 18:31:32 40° NW 18:34:28 10° NNE
Cosmos 1656 Rocket 3.9 18:31:15 10° SSW 18:36:48 73° ESE 18:42:22 10° NE
BlueWalker 3 3.0 18:33:12 10° NW 18:36:49 47° NNE 18:40:27 10° ESE
Cosmos 1607 4.4 18:31:58 10° SW 18:38:24 66° SE 18:44:48 10° NE
Cosmos 1340 Rocket 4.5 18:37:14 10° NNE 18:40:51 38° E 18:44:34 10° SSE
Cosmos 2360 Rocket 3.8 18:38:15 10° WSW 18:41:47 16° SSW 18:45:19 10° S
Cosmos 972 Rocket 4.4 18:38:19 10° SSW 18:43:11 42° WNW 18:47:49 10° N
Gbstr 26 Del rocket 3.8 18:38:10 10° W 18:43:26 83° S 18:49:59 10° E
